Bear Creek Reservoir Weather Center

Moon Phase Calendar



Bear Creek Reservoir Water Level
Online Cameras

 


      

Current Conditions in Bogart
4/20/2021 1:11:59 PM

71°F
Feels Like 69
Clear
Humidity
40%
Pressure
30.06"
Wind
7.6 mph (S)
Dew Point
45°F
UV Index
7/10 (High)
Visibility
6 mi

Hourly Forecast

Date & Time Tue, Apr 20
1:00 PM
Tue, Apr 20
2:00 PM
Tue, Apr 20
3:00 PM
Tue, Apr 20
4:00 PM
Tue, Apr 20
5:00 PM
Tue, Apr 20
6:00 PM
Tue, Apr 20
7:00 PM
Tue, Apr 20
8:00 PM
Tue, Apr 20
9:00 PM
Tue, Apr 20
10:00 PM
Tue, Apr 20
11:00 PM
Wed, Apr 21
12:00 AM
Wed, Apr 21
1:00 AM
Wed, Apr 21
2:00 AM
Wed, Apr 21
3:00 AM
Wed, Apr 21
4:00 AM
Wed, Apr 21
5:00 AM
Wed, Apr 21
6:00 AM
Wed, Apr 21
7:00 AM
Wed, Apr 21
8:00 AM
Wed, Apr 21
9:00 AM
Wed, Apr 21
10:00 AM
Wed, Apr 21
11:00 AM
Wed, Apr 21
12:00 PM
Wed, Apr 21
1:00 PM
Wed, Apr 21
2:00 PM
Wed, Apr 21
3:00 PM
Wed, Apr 21
4:00 PM
Wed, Apr 21
5:00 PM
Wed, Apr 21
6:00 PM
Wed, Apr 21
7:00 PM
Wed, Apr 21
8:00 PM
Wed, Apr 21
9:00 PM
Wed, Apr 21
10:00 PM
Wed, Apr 21
11:00 PM
Thu, Apr 22
12:00 AM
Thu, Apr 22
1:00 AM
Thu, Apr 22
2:00 AM
Thu, Apr 22
3:00 AM
Thu, Apr 22
4:00 AM
Thu, Apr 22
5:00 AM
Thu, Apr 22
6:00 AM
Thu, Apr 22
7:00 AM
Thu, Apr 22
8:00 AM
Thu, Apr 22
9:00 AM
Thu, Apr 22
10:00 AM
Thu, Apr 22
11:00 AM
Thu, Apr 22
12:00 PM
Condition
Clear

Clouds

Clouds

Clouds

Clouds

Clouds

Clouds

Clouds

Clouds

Clouds

Clouds

Clouds

Clouds

Clouds

Clear

Clear

Clear

Clear

Clear

Clear

Clouds

Clouds

Clear

Clear

Clear

Clear

Clear

Clear

Clear

Clear

Clear

Clear

Clear

Clear

Clear

Clear

Clear

Clear

Clear

Clear

Clear

Clear

Clear

Clear

Clear

Clouds

Clouds

Clouds
Temperature 71°F71°F72°F72°F73°F73°F70°F63°F64°F65°F60°F58°F57°F56°F55°F53°F52°F52°F52°F51°F53°F55°F57°F58°F59°F59°F59°F59°F58°F57°F53°F49°F45°F43°F40°F39°F38°F38°F37°F36°F36°F35°F35°F39°F46°F50°F53°F55°F
Feels Like 69°F70°F70°F71°F71°F71°F68°F62°F62°F63°F59°F56°F56°F54°F53°F51°F50°F51°F50°F49°F52°F53°F55°F55°F56°F56°F56°F56°F55°F54°F50°F45°F41°F39°F37°F35°F34°F34°F33°F32°F31°F31°F31°F36°F44°F48°F49°F52°F
Cloudiness 1%21%41%39%38%38%32%29%78%85%59%46%41%34%0%0%0%0%0%1%14%12%8%6%5%4%0%0%0%0%0%0%0%0%0%2%2%1%0%2%3%4%5%5%7%47%53%57%
Visibility 6 mi6 mi6 mi6 mi6 mi6 mi6 mi6 mi6 mi6 mi6 mi6 mi6 mi6 mi6 mi6 mi6 mi6 mi6 mi6 mi6 mi6 mi6 mi6 mi6 mi6 mi6 mi6 mi6 mi6 mi6 mi6 mi6 mi6 mi6 mi6 mi6 mi6 mi6 mi6 mi6 mi6 mi6 mi6 mi6 mi6 mi6 mi6 mi
Precipitation 0%0%0%0%0%0%0%0%0%0%0%0%0%0%0%0%0%0%0%0%0%0%0%0%0%0%0%0%0%0%0%0%0%0%0%0%0%0%0%0%0%0%0%0%0%0%0%0%
Humidity 40%38%37%37%36%39%48%62%58%56%66%71%67%69%69%72%73%71%75%79%68%57%47%37%32%29%28%26%26%30%36%41%45%50%56%59%62%63%64%65%67%69%70%60%46%36%33%32%
Dew Point 45°F44°F44°F45°F44°F46°F49°F50°F49°F49°F49°F48°F46°F46°F45°F44°F43°F43°F44°F44°F43°F40°F37°F32°F29°F27°F26°F25°F24°F26°F27°F26°F25°F25°F25°F26°F26°F26°F26°F26°F26°F26°F26°F26°F26°F24°F25°F26°F
Pressure 30.06"30.03"30"29.97"29.91"29.88"29.88"29.88"29.91"29.91"29.91"29.91"29.91"29.91"29.91"29.91"29.91"29.91"29.94"29.97"29.97"30"30"30.03"30.03"30.03"30.03"30.03"30.03"30.06"30.09"30.12"30.15"30.18"30.21"30.21"30.21"30.24"30.21"30.24"30.24"30.24"30.27"30.27"30.27"30.27"30.27"30.24"
Wind Speed 7.6 mph10.4 mph10.4 mph9.6 mph8.9 mph8.4 mph7.1 mph6 mph6.9 mph8 mph6.6 mph6.1 mph6.6 mph6.7 mph6.3 mph5.4 mph6.2 mph8.4 mph10.8 mph13 mph12.1 mph14.6 mph15.5 mph15.1 mph14.7 mph14.9 mph14.7 mph14.5 mph15.5 mph13.6 mph12.1 mph9.9 mph7.7 mph5.6 mph4.5 mph4.5 mph5.1 mph5.4 mph5.3 mph5.3 mph5.2 mph4.9 mph4.6 mph4.2 mph4.2 mph4.4 mph5.6 mph6.6 mph
Wind
Direction
186°
S
194°
SSW
194°
SSW
198°
SSW
200°
SSW
200°
SSW
185°
S
174°
S
185°
S
200°
SSW
225°
SW
239°
WSW
250°
WSW
265°
W
276°
W
276°
W
280°
W
280°
W
280°
W
281°
W
283°
WNW
288°
WNW
290°
WNW
295°
WNW
303°
WNW
310°
NW
311°
NW
307°
NW
307°
NW
310°
NW
321°
NW
335°
NNW
347°
NNW
348°
NNW
339°
NNW
311°
NW
304°
NW
302°
WNW
301°
WNW
303°
WNW
313°
NW
316°
NW
317°
NW
324°
NW
313°
NW
320°
NW
307°
NW
294°
WNW

Daily Forecast

Date High Low Precip. Humidity
Today
Apr 20

Clear
73 °F
48 °F
0%
40%
Wednesday
Apr 21

Clear
59 °F
40 °F
0%
32%
Thursday
Apr 22

Clouds
61 °F
36 °F
0%
28%
Friday
Apr 23

Clouds
67 °F
40 °F
0%
31%
Saturday
Apr 24

Rain
67 °F
50 °F
100%
99%
Sunday
Apr 25

Clouds
72 °F
51 °F
0%
35%
Monday
Apr 26

Clear
74 °F
45 °F
0%
40%
Tuesday
Apr 27

Clouds
77 °F
51 °F
0%
51%
Wednesday
Apr 28

Clouds
79 °F
54 °F
0%
44%
Thursday
Apr 29

Rain
71 °F
60 °F
100%
73%
Friday
Apr 30

Rain
64 °F
51 °F
100%
67%
Saturday
May 1

Rain
61 °F
48 °F
61%
68%
Sunday
May 2

Clouds
65 °F
47 °F
0%
62%
Monday
May 3

Rain
58 °F
54 °F
100%
97%
Tuesday
May 4

Rain
66 °F
57 °F
100%
96%
Wednesday
May 5

Rain
84 °F
64 °F
88%
55%

Temperature 8-14 Day Outlook



Precipitation 8-14 Day Outlook




Quick Links
Bear Creek Reservoir News
Bear Creek Reservoir Photos
Bear Creek Reservoir Videos




About Us
Contact Us
Site Map
Search Site
Advertise With Us
   
BearCreeek-GA.LakesOnline.com
THE BEAR CREEK RESERVOIR WEBSITE

Copyright 2021, Lakes Online
Privacy    |    Legal